Time,TemperatureF,DewpointF,PressureIn,WindDirection,WindDirectionDegrees,WindSpeedMPH,WindSpeedGustMPH,Humidity,HourlyPrecipIn,Conditions,Clouds,dailyrainin,SoftwareType,DateUTC
2013-02-20 00:00:00,38.8,17.2,30.00,NW,315,1.8,7.2,41,0.00,,CLR,0.06,VWS V12.08,2013-02-20 05:00:00,
2013-02-20 00:01:00,38.8,17.2,30.00,NW,315,1.8,7.2,41,0.00,,CLR,0.06,VWS V12.08,2013-02-20 05:01:00,
2013-02-20 00:06:00,38.8,17.2,30.00,West,270,5.1,5.1,41,0.00,,CLR,0.06,VWS V12.08,2013-02-20 05:06:00,
2013-02-20 00:11:00,38.8,17.7,30.00,NW,315,8.7,8.7,42,0.00,,CLR,0.06,VWS V12.08,2013-02-20 05:11:00,
2013-02-20 00:16:00,38.8,17.7,30.01,West,270,3.6,8.7,42,0.00,,CLR,0.06,VWS V12.08,2013-02-20 05:16:00,
2013-02-20 00:21:00,38.8,17.7,30.01,West,270,3.6,3.6,42,0.00,,CLR,0.06,VWS V12.08,2013-02-20 05:21:00,
2013-02-20 00:26:00,38.5,16.8,30.01,West,270,0.0,3.6,41,0.00,,CLR,0.06,VWS V12.08,2013-02-20 05:26:00,
2013-02-20 00:31:00,38.1,16.5,30.01,WNW,292,1.6,3.6,41,0.00,,CLR,0.06,VWS V12.08,2013-02-20 05:31:00,
2013-02-20 00:36:00,38.1,17.1,30.02,NW,315,6.9,6.9,42,0.00,,CLR,0.06,VWS V12.08,2013-02-20 05:36:00,
2013-02-20 00:41:00,37.9,16.9,30.02,NW,315,4.3,4.3,42,0.00,,CLR,0.06,VWS V12.08,2013-02-20 05:41:00,
2013-02-20 00:46:00,37.9,16.9,30.02,West,270,3.4,4.3,42,0.00,,CLR,0.06,VWS V12.08,2013-02-20 05:46:00,
2013-02-20 00:51:00,37.9,16.4,30.02,WNW,292,3.4,4.3,41,0.00,,CLR,0.06,VWS V12.08,2013-02-20 05:51:00,
2013-02-20 00:56:00,37.8,16.2,30.03,NW,315,6.9,6.9,41,0.00,,CLR,0.06,VWS V12.08,2013-02-20 05:56:00,
2013-02-20 01:01:00,37.8,15.6,30.03,WNW,292,4.3,6.9,40,0.00,,CLR,0.06,VWS V12.08,2013-02-20 06:01:00,
2013-02-20 01:06:00,37.8,15.6,30.03,WNW,292,4.3,6.9,40,0.00,,CLR,0.06,VWS V12.08,2013-02-20 06:06:00,
2013-02-20 01:11:00,37.6,14.9,30.02,NW,315,0.9,6.9,39,0.00,,CLR,0.06,VWS V12.08,2013-02-20 06:11:00,
2013-02-20 01:16:00,37.4,15.3,30.02,NW,315,3.6,6.9,40,0.00,,CLR,0.06,VWS V12.08,2013-02-20 06:16:00,
2013-02-20 01:21:00,37.4,14.7,30.02,West,270,1.1,1.1,39,0.00,,CLR,0.06,VWS V12.08,2013-02-20 06:21:00,
2013-02-20 01:26:00,37.2,14.6,30.02,West,270,0.0,3.6,39,0.00,,CLR,0.06,VWS V12.08,2013-02-20 06:26:00,
2013-02-20 01:31:00,37.2,15.1,30.02,WNW,292,5.1,5.1,40,0.00,,CLR,0.06,VWS V12.08,2013-02-20 06:31:00,
2013-02-20 01:36:00,37.2,14.6,30.02,WNW,292,5.1,5.1,39,0.00,,CLR,0.06,VWS V12.08,2013-02-20 06:36:00,
2013-02-20 01:41:00,37.2,14.6,30.02,WNW,292,5.1,5.1,39,0.00,,CLR,0.06,VWS V12.08,2013-02-20 06:41:00,
2013-02-20 01:46:00,37.0,14.4,30.03,WNW,292,9.0,9.0,39,0.00,,CLR,0.06,VWS V12.08,2013-02-20 06:46:00,
2013-02-20 01:51:00,37.0,14.4,30.02,WNW,292,3.4,9.8,39,0.00,,CLR,0.06,VWS V12.08,2013-02-20 06:51:00,
2013-02-20 01:56:00,37.0,14.4,30.02,WSW,248,7.2,9.8,39,0.00,,CLR,0.06,VWS V12.08,2013-02-20 06:56:00,
2013-02-20 02:01:00,36.9,13.6,30.01,NW,315,11.6,11.6,38,0.00,,CLR,0.06,VWS V12.08,2013-02-20 07:01:00,
2013-02-20 02:06:00,36.7,14.1,30.01,NNW,338,0.0,11.6,39,0.00,,CLR,0.06,VWS V12.08,2013-02-20 07:06:00,
2013-02-20 02:11:00,36.5,13.9,30.01,WNW,292,6.3,11.6,39,0.00,,CLR,0.06,VWS V12.08,2013-02-20 07:11:00,
2013-02-20 02:16:00,36.5,13.9,30.01,NW,315,8.3,11.6,39,0.00,,CLR,0.06,VWS V12.08,2013-02-20 07:16:00,
2013-02-20 02:21:00,36.5,13.3,30.01,WNW,292,1.6,1.6,38,0.00,,CLR,0.06,VWS V12.08,2013-02-20 07:21:00,
2013-02-20 02:26:00,36.5,13.3,30.00,NW,315,8.7,8.7,38,0.00,,CLR,0.06,VWS V12.08,2013-02-20 07:26:00,
2013-02-20 02:31:00,36.5,13.3,30.00,NW,315,8.7,8.7,38,0.00,,CLR,0.06,VWS V12.08,2013-02-20 07:31:00,
2013-02-20 02:36:00,36.0,13.4,30.00,West,270,5.6,8.7,39,0.00,,CLR,0.06,VWS V12.08,2013-02-20 07:36:00,
2013-02-20 02:41:00,36.0,13.4,30.01,SW,225,8.1,8.1,39,0.00,,CLR,0.06,VWS V12.08,2013-02-20 07:41:00,
2013-02-20 02:46:00,36.0,13.4,30.00,NW,315,5.1,8.1,39,0.00,,CLR,0.06,VWS V12.08,2013-02-20 07:46:00,
2013-02-20 02:51:00,36.0,13.4,30.00,WNW,292,1.8,8.1,39,0.00,,CLR,0.06,VWS V12.08,2013-02-20 07:51:00,
2013-02-20 02:56:00,35.8,13.8,30.00,WNW,292,4.9,8.1,40,0.00,,CLR,0.06,VWS V12.08,2013-02-20 07:56:00,
2013-02-20 03:01:00,35.4,13.5,30.01,NW,315,6.5,6.5,40,0.00,,CLR,0.06,VWS V12.08,2013-02-20 08:01:00,
2013-02-20 03:06:00,35.4,13.5,30.01,NW,315,6.5,6.5,40,0.00,,CLR,0.06,VWS V12.08,2013-02-20 08:06:00,
2013-02-20 03:11:00,35.4,13.5,30.00,West,270,6.3,6.5,40,0.00,,CLR,0.06,VWS V12.08,2013-02-20 08:11:00,
2013-02-20 03:16:00,35.4,13.5,30.01,West,270,6.3,6.5,40,0.00,,CLR,0.06,VWS V12.08,2013-02-20 08:16:00,
2013-02-20 03:21:00,35.4,13.5,30.01,West,270,7.6,7.6,40,0.00,,CLR,0.06,VWS V12.08,2013-02-20 08:21:00,
2013-02-20 03:26:00,35.4,13.5,30.01,West,270,3.4,7.6,40,0.00,,CLR,0.06,VWS V12.08,2013-02-20 08:26:00,
2013-02-20 03:31:00,35.2,13.4,30.00,WSW,248,3.8,7.6,40,0.00,,CLR,0.06,VWS V12.08,2013-02-20 08:31:00,
2013-02-20 03:36:00,35.2,13.4,30.00,WSW,248,3.8,7.6,40,0.00,,CLR,0.06,VWS V12.08,2013-02-20 08:36:00,
2013-02-20 03:41:00,35.2,12.8,30.01,West,270,2.2,5.6,39,0.00,,CLR,0.06,VWS V12.08,2013-02-20 08:41:00,
2013-02-20 03:46:00,35.2,13.4,30.00,WSW,248,0.0,5.6,40,0.00,,CLR,0.06,VWS V12.08,2013-02-20 08:46:00,
2013-02-20 03:51:00,35.2,13.4,30.00,WSW,248,0.0,5.6,40,0.00,,CLR,0.06,VWS V12.08,2013-02-20 08:51:00,
2013-02-20 03:56:00,34.9,13.0,30.00,West,270,0.4,8.7,40,0.00,,CLR,0.06,VWS V12.08,2013-02-20 08:56:00,
2013-02-20 04:01:00,34.9,13.0,29.99,West,270,1.6,9.2,40,0.00,,CLR,0.06,VWS V12.08,2013-02-20 09:01:00,
2013-02-20 04:06:00,34.9,13.0,30.00,WSW,248,5.6,9.2,40,0.00,,CLR,0.06,VWS V12.08,2013-02-20 09:06:00,
2013-02-20 04:11:00,34.5,13.3,29.99,West,270,4.7,9.2,41,0.00,,CLR,0.06,VWS V12.08,2013-02-20 09:11:00,
2013-02-20 04:16:00,34.5,13.3,29.99,WSW,248,1.3,9.2,41,0.00,,CLR,0.06,VWS V12.08,2013-02-20 09:16:00,
2013-02-20 04:21:00,34.3,13.1,30.00,WNW,292,3.8,3.8,41,0.00,,CLR,0.06,VWS V12.08,2013-02-20 09:21:00,
2013-02-20 04:26:00,34.3,13.1,29.99,WNW,292,1.3,4.0,41,0.00,,CLR,0.06,VWS V12.08,2013-02-20 09:26:00,
2013-02-20 04:31:00,34.3,12.5,29.99,West,270,2.5,8.5,40,0.00,,CLR,0.06,VWS V12.08,2013-02-20 09:31:00,
2013-02-20 04:36:00,34.3,12.5,29.99,WSW,248,2.2,11.9,40,0.00,,CLR,0.06,VWS V12.08,2013-02-20 09:36:00,
2013-02-20 04:41:00,34.3,12.5,29.99,West,270,3.4,3.6,40,0.00,,CLR,0.06,VWS V12.08,2013-02-20 09:41:00,
2013-02-20 04:46:00,34.3,13.1,29.99,NW,315,0.7,13.9,41,0.00,,CLR,0.06,VWS V12.08,2013-02-20 09:46:00,
2013-02-20 04:51:00,34.3,13.1,30.00,NW,315,0.7,13.9,41,0.00,,CLR,0.06,VWS V12.08,2013-02-20 09:51:00,
2013-02-20 04:56:00,34.2,12.9,30.00,WNW,292,0.7,13.9,41,0.00,,CLR,0.06,VWS V12.08,2013-02-20 09:56:00,
2013-02-20 05:01:00,34.0,12.8,30.00,WNW,292,1.1,1.1,41,0.00,,CLR,0.06,VWS V12.08,2013-02-20 10:01:00,
2013-02-20 05:06:00,34.0,12.8,29.99,WNW,292,11.2,11.2,41,0.00,,CLR,0.06,VWS V12.08,2013-02-20 10:06:00,
2013-02-20 05:11:00,34.0,12.2,29.99,WNW,292,11.2,11.2,40,0.00,,CLR,0.06,VWS V12.08,2013-02-20 10:11:00,
2013-02-20 05:16:00,34.0,12.2,29.99,WNW,292,11.2,11.2,40,0.00,,CLR,0.06,VWS V12.08,2013-02-20 10:16:00,
2013-02-20 05:21:00,34.2,12.4,29.99,WSW,248,5.8,5.8,40,0.00,,CLR,0.06,VWS V12.08,2013-02-20 10:21:00,
2013-02-20 05:26:00,34.2,12.4,29.99,WSW,248,8.5,8.5,40,0.00,,CLR,0.06,VWS V12.08,2013-02-20 10:26:00,
2013-02-20 05:31:00,34.0,12.2,29.98,WNW,292,2.2,8.5,40,0.00,,CLR,0.06,VWS V12.08,2013-02-20 10:31:00,
2013-02-20 05:36:00,34.0,12.2,29.99,WSW,248,0.0,8.5,40,0.00,,CLR,0.06,VWS V12.08,2013-02-20 10:36:00,
2013-02-20 05:41:00,33.8,12.1,29.99,WNW,292,5.8,5.8,40,0.00,,CLR,0.06,VWS V12.08,2013-02-20 10:41:00,
2013-02-20 05:46:00,34.0,12.2,29.99,NW,315,6.0,6.0,40,0.00,,CLR,0.06,VWS V12.08,2013-02-20 10:46:00,
2013-02-20 05:51:00,34.0,12.2,29.99,WSW,248,3.6,6.7,40,0.00,,CLR,0.06,VWS V12.08,2013-02-20 10:51:00,
2013-02-20 05:56:00,33.8,12.1,29.99,WNW,292,8.7,8.7,40,0.00,,CLR,0.06,VWS V12.08,2013-02-20 10:56:00,
2013-02-20 06:01:00,33.8,12.1,29.99,West,270,5.6,5.6,40,0.00,,CLR,0.06,VWS V12.08,2013-02-20 11:01:00,
2013-02-20 06:06:00,33.8,12.1,29.99,West,270,5.6,5.6,40,0.00,,CLR,0.06,VWS V12.08,2013-02-20 11:06:00,
2013-02-20 06:11:00,33.6,11.9,29.99,West,270,2.9,5.6,40,0.00,,CLR,0.06,VWS V12.08,2013-02-20 11:11:00,
2013-02-20 06:16:00,33.6,11.9,29.99,North,0,0.7,5.6,40,0.00,,CLR,0.06,VWS V12.08,2013-02-20 11:16:00,
2013-02-20 06:21:00,33.6,11.9,29.99,WNW,292,0.0,0.0,40,0.00,,CLR,0.06,VWS V12.08,2013-02-20 11:21:00,
2013-02-20 06:26:00,33.4,11.7,30.00,WNW,292,5.6,5.6,40,0.00,,CLR,0.06,VWS V12.08,2013-02-20 11:26:00,
2013-02-20 06:31:00,33.4,11.7,29.99,West,270,0.9,5.6,40,0.00,,CLR,0.06,VWS V12.08,2013-02-20 11:31:00,
2013-02-20 06:36:00,33.4,11.7,30.00,NW,315,0.0,5.6,40,0.00,,CLR,0.06,VWS V12.08,2013-02-20 11:36:00,
2013-02-20 06:41:00,33.3,11.0,30.00,NNW,338,1.3,2.2,39,0.00,,CLR,0.06,VWS V12.08,2013-02-20 11:41:00,
2013-02-20 06:46:00,33.4,11.7,30.00,WNW,292,2.5,2.5,40,0.00,,CLR,0.06,VWS V12.08,2013-02-20 11:46:00,
2013-02-20 06:51:00,33.4,10.6,30.00,WNW,292,0.0,2.5,38,0.00,,CLR,0.06,VWS V12.08,2013-02-20 11:51:00,
2013-02-20 06:56:00,33.6,11.9,30.00,NNW,338,0.0,2.5,40,0.00,,CLR,0.06,VWS V12.08,2013-02-20 11:56:00,
2013-02-20 07:01:00,33.4,11.7,30.00,West,270,4.3,4.3,40,0.00,,CLR,0.02,VWS V12.08,2013-02-20 12:01:00,
2013-02-20 07:06:00,33.4,11.7,30.00,WSW,248,5.6,5.6,40,0.00,,CLR,0.02,VWS V12.08,2013-02-20 12:06:00,
2013-02-20 07:11:00,33.3,11.0,30.00,WSW,248,2.0,5.6,39,0.00,,CLR,0.02,VWS V12.08,2013-02-20 12:11:00,
2013-02-20 07:16:00,33.1,10.8,30.01,WSW,248,1.6,5.6,39,0.00,,CLR,0.02,VWS V12.08,2013-02-20 12:16:00,
2013-02-20 07:21:00,33.4,11.7,30.00,ENE,68,0.7,0.7,40,0.00,,CLR,0.02,VWS V12.08,2013-02-20 12:21:00,
2013-02-20 07:26:00,33.6,11.3,30.01,WNW,292,1.3,5.6,39,0.00,,CLR,0.02,VWS V12.08,2013-02-20 12:26:00,
2013-02-20 07:31:00,33.6,11.9,30.01,WNW,292,0.0,7.2,40,0.00,,CLR,0.02,VWS V12.08,2013-02-20 12:31:00,
2013-02-20 07:36:00,33.6,11.9,30.01,WSW,248,3.1,7.2,40,0.00,,CLR,0.02,VWS V12.08,2013-02-20 12:36:00,
2013-02-20 07:41:00,33.6,11.3,30.01,WNW,292,1.1,1.1,39,0.00,,CLR,0.02,VWS V12.08,2013-02-20 12:41:00,
2013-02-20 07:46:00,33.8,11.5,30.01,ENE,68,0.0,5.6,39,0.00,,CLR,0.02,VWS V12.08,2013-02-20 12:46:00,
2013-02-20 07:51:00,34.0,11.6,30.02,WSW,248,0.0,5.8,39,0.00,,CLR,0.02,VWS V12.08,2013-02-20 12:51:00,
2013-02-20 07:56:00,34.2,11.8,30.01,ENE,68,0.0,7.4,39,0.00,,CLR,0.02,VWS V12.08,2013-02-20 12:56:00,
2013-02-20 08:01:00,34.2,11.8,30.02,ENE,68,0.0,2.2,39,0.00,,CLR,0.00,VWS V12.08,2013-02-20 13:01:00,
2013-02-20 08:06:00,34.3,11.4,30.02,NNW,338,0.0,3.4,38,0.00,,CLR,0.00,VWS V12.08,2013-02-20 13:06:00,
2013-02-20 08:11:00,34.3,12.0,30.02,SSW,202,0.0,3.8,39,0.00,,CLR,0.00,VWS V12.08,2013-02-20 13:11:00,
2013-02-20 08:16:00,34.3,12.0,30.02,ESE,112,0.0,3.8,39,0.00,,CLR,0.00,VWS V12.08,2013-02-20 13:16:00,
2013-02-20 08:21:00,34.3,12.0,30.02,SSW,202,0.0,0.0,39,0.00,,CLR,0.00,VWS V12.08,2013-02-20 13:21:00,
2013-02-20 08:26:00,34.9,11.9,30.02,North,0,3.4,5.4,38,0.00,,CLR,0.00,VWS V12.08,2013-02-20 13:26:00,
2013-02-20 08:31:00,35.2,12.2,30.02,SSW,202,0.0,5.4,38,0.00,,CLR,0.00,VWS V12.08,2013-02-20 13:31:00,
2013-02-20 08:36:00,35.8,12.7,30.02,SSW,202,4.9,7.6,38,0.00,,CLR,0.00,VWS V12.08,2013-02-20 13:36:00,
2013-02-20 08:41:00,36.1,13.0,30.03,SE,135,0.0,0.0,38,0.00,,CLR,0.00,VWS V12.08,2013-02-20 13:41:00,
2013-02-20 08:46:00,36.7,12.9,30.03,SW,225,0.0,5.8,37,0.00,,CLR,0.00,VWS V12.08,2013-02-20 13:46:00,
2013-02-20 08:51:00,37.2,13.4,30.03,NW,315,0.0,5.8,37,0.00,,CLR,0.00,VWS V12.08,2013-02-20 13:51:00,
2013-02-20 08:56:00,37.9,14.0,30.03,WSW,248,0.0,9.0,37,0.00,,CLR,0.00,VWS V12.08,2013-02-20 13:56:00,
2013-02-20 09:01:00,38.5,13.9,30.03,SE,135,0.0,1.6,36,0.00,,CLR,0.00,VWS V12.08,2013-02-20 14:01:00,
2013-02-20 09:06:00,38.8,13.5,30.02,SSE,158,0.0,6.3,35,0.00,,CLR,0.00,VWS V12.08,2013-02-20 14:06:00,
2013-02-20 09:11:00,39.4,14.7,30.03,NE,45,0.0,6.3,36,0.00,,CLR,0.00,VWS V12.08,2013-02-20 14:11:00,
2013-02-20 09:16:00,39.7,14.3,30.04,ENE,68,0.0,6.3,35,0.00,,CLR,0.00,VWS V12.08,2013-02-20 14:16:00,
2013-02-20 09:21:00,40.1,14.7,30.04,SSW,202,5.4,5.4,35,0.00,,CLR,0.00,VWS V12.08,2013-02-20 14:21:00,
2013-02-20 09:26:00,40.3,14.2,30.04,ENE,68,0.0,5.4,34,0.00,,CLR,0.00,VWS V12.08,2013-02-20 14:26:00,
2013-02-20 09:31:00,40.6,14.5,30.04,SSW,202,0.0,5.6,34,0.00,,CLR,0.00,VWS V12.08,2013-02-20 14:31:00,
2013-02-20 09:36:00,40.8,13.3,30.04,West,270,3.1,8.5,32,0.00,,CLR,0.00,VWS V12.08,2013-02-20 14:36:00,
2013-02-20 09:41:00,41.5,13.2,30.04,West,270,3.6,5.4,31,0.00,,CLR,0.00,VWS V12.08,2013-02-20 14:41:00,
2013-02-20 09:46:00,41.5,13.2,30.04,SSW,202,0.9,7.2,31,0.00,,CLR,0.00,VWS V12.08,2013-02-20 14:46:00,
2013-02-20 09:51:00,41.5,13.2,30.05,SW,225,5.6,7.2,31,0.00,,CLR,0.00,VWS V12.08,2013-02-20 14:51:00,
2013-02-20 09:56:00,42.1,13.6,30.05,WNW,292,0.0,9.4,31,0.00,,CLR,0.00,VWS V12.08,2013-02-20 14:56:00,
2013-02-20 10:01:00,42.4,13.2,30.05,ESE,112,3.6,5.4,30,0.00,,CLR,0.00,VWS V12.08,2013-02-20 15:01:00,
2013-02-20 10:06:00,42.6,13.4,30.05,SW,225,0.0,5.8,30,0.00,,CLR,0.00,VWS V12.08,2013-02-20 15:06:00,
2013-02-20 10:11:00,43.2,13.8,30.05,WSW,248,0.0,5.8,30,0.00,,CLR,0.00,VWS V12.08,2013-02-20 15:11:00,
2013-02-20 10:16:00,43.2,13.8,30.05,East,90,0.0,5.8,30,0.00,,CLR,0.00,VWS V12.08,2013-02-20 15:16:00,
2013-02-20 10:21:00,43.7,13.5,30.05,West,270,2.0,3.1,29,0.00,,CLR,0.00,VWS V12.08,2013-02-20 15:21:00,
2013-02-20 10:26:00,44.2,14.0,30.05,SSW,202,5.1,6.7,29,0.00,,CLR,0.00,VWS V12.08,2013-02-20 15:26:00,
2013-02-20 10:31:00,44.4,14.9,30.05,NNE,22,0.9,6.7,30,0.00,,CLR,0.00,VWS V12.08,2013-02-20 15:31:00,
2013-02-20 10:36:00,45.0,14.6,30.05,WNW,292,4.7,7.8,29,0.00,,CLR,0.00,VWS V12.08,2013-02-20 15:36:00,
2013-02-20 10:41:00,45.1,13.2,30.05,WNW,292,4.5,6.9,27,0.00,,CLR,0.00,VWS V12.08,2013-02-20 15:41:00,
2013-02-20 10:46:00,45.3,14.1,30.05,WNW,292,5.1,6.9,28,0.00,,CLR,0.00,VWS V12.08,2013-02-20 15:46:00,
2013-02-20 10:51:00,45.3,12.5,30.04,West,270,0.0,6.9,26,0.00,,CLR,0.00,VWS V12.08,2013-02-20 15:51:00,
2013-02-20 10:56:00,46.0,13.1,30.04,WSW,248,0.4,8.1,26,0.00,,CLR,0.00,VWS V12.08,2013-02-20 15:56:00,
2013-02-20 11:01:00,46.2,14.1,30.05,WNW,292,6.5,6.5,27,0.00,,CLR,0.00,VWS V12.08,2013-02-20 16:01:00,
2013-02-20 11:06:00,46.2,13.2,30.04,WNW,292,0.0,8.7,26,0.00,,CLR,0.00,VWS V12.08,2013-02-20 16:06:00,
2013-02-20 11:11:00,46.6,13.6,30.04,NW,315,0.0,8.7,26,0.00,,CLR,0.00,VWS V12.08,2013-02-20 16:11:00,
2013-02-20 11:16:00,46.9,14.7,30.04,WSW,248,4.3,10.3,27,0.00,,CLR,0.00,VWS V12.08,2013-02-20 16:16:00,
2013-02-20 11:21:00,46.9,13.0,30.05,WNW,292,6.3,6.3,25,0.00,,CLR,0.00,VWS V12.08,2013-02-20 16:21:00,
2013-02-20 11:26:00,47.3,13.3,30.05,WSW,248,4.7,10.7,25,0.00,,CLR,0.00,VWS V12.08,2013-02-20 16:26:00,
2013-02-20 11:31:00,47.3,13.3,30.05,West,270,6.7,10.7,25,0.00,,CLR,0.00,VWS V12.08,2013-02-20 16:31:00,
2013-02-20 11:36:00,47.3,13.3,30.04,West,270,4.3,10.7,25,0.00,,CLR,0.00,VWS V12.08,2013-02-20 16:36:00,
2013-02-20 11:41:00,48.0,12.0,30.04,NW,315,7.6,11.2,23,0.00,,CLR,0.00,VWS V12.08,2013-02-20 16:41:00,
2013-02-20 11:46:00,48.0,12.0,30.04,West,270,0.0,12.1,23,0.00,,CLR,0.00,VWS V12.08,2013-02-20 16:46:00,
2013-02-20 11:51:00,48.0,13.0,30.03,WSW,248,3.6,12.1,24,0.00,,CLR,0.00,VWS V12.08,2013-02-20 16:51:00,
2013-02-20 11:56:00,49.3,14.0,30.03,SW,225,6.5,12.1,24,0.00,,CLR,0.00,VWS V12.08,2013-02-20 16:56:00,
2013-02-20 12:01:00,49.3,14.0,30.03,WSW,248,4.7,4.7,24,0.00,,CLR,0.00,VWS V12.08,2013-02-20 17:01:00,
2013-02-20 12:06:00,49.3,13.1,30.03,West,270,3.4,9.8,23,0.00,,CLR,0.00,VWS V12.08,2013-02-20 17:06:00,
2013-02-20 12:11:00,49.6,12.4,30.03,NW,315,13.0,13.0,22,0.00,,CLR,0.00,VWS V12.08,2013-02-20 17:11:00,
2013-02-20 12:16:00,49.6,12.4,30.02,WNW,292,10.1,13.0,22,0.00,,CLR,0.00,VWS V12.08,2013-02-20 17:16:00,
2013-02-20 12:21:00,49.8,11.5,30.02,NW,315,2.9,15.0,21,0.00,,CLR,0.00,VWS V12.08,2013-02-20 17:21:00,
2013-02-20 12:26:00,50.0,12.7,30.02,West,270,3.1,15.0,22,0.00,,CLR,0.00,VWS V12.08,2013-02-20 17:26:00,
2013-02-20 12:31:00,50.2,12.8,30.02,SW,225,1.3,15.0,22,0.00,,CLR,0.00,VWS V12.08,2013-02-20 17:31:00,
2013-02-20 12:36:00,50.7,13.3,30.02,SW,225,3.6,15.0,22,0.00,,CLR,0.00,VWS V12.08,2013-02-20 17:36:00,
2013-02-20 12:41:00,51.1,12.5,30.01,WSW,248,2.7,13.2,21,0.00,,CLR,0.00,VWS V12.08,2013-02-20 17:41:00,
2013-02-20 12:46:00,51.6,14.0,30.01,SW,225,6.0,13.2,22,0.00,,CLR,0.00,VWS V12.08,2013-02-20 17:46:00,
2013-02-20 12:51:00,51.6,14.0,30.01,SW,225,5.4,13.2,22,0.00,,CLR,0.00,VWS V12.08,2013-02-20 17:51:00,
2013-02-20 12:56:00,52.3,14.6,30.01,NW,315,4.3,13.2,22,0.00,,CLR,0.00,VWS V12.08,2013-02-20 17:56:00,
2013-02-20 13:01:00,52.7,14.9,30.01,WNW,292,7.8,7.8,22,0.00,,CLR,0.00,VWS V12.08,2013-02-20 18:01:00,
2013-02-20 13:06:00,53.2,15.4,30.00,SW,225,6.0,7.8,22,0.00,,CLR,0.00,VWS V12.08,2013-02-20 18:06:00,
2013-02-20 13:11:00,53.2,14.3,30.00,ESE,112,1.8,15.9,21,0.00,,CLR,0.00,VWS V12.08,2013-02-20 18:11:00,
2013-02-20 13:16:00,53.8,14.8,30.00,West,270,11.4,15.9,21,0.00,,CLR,0.00,VWS V12.08,2013-02-20 18:16:00,
2013-02-20 13:21:00,54.1,15.1,30.01,NW,315,6.5,6.9,21,0.00,,CLR,0.00,VWS V12.08,2013-02-20 18:21:00,
2013-02-20 13:26:00,54.3,15.2,30.00,WSW,248,3.8,6.9,21,0.00,,CLR,0.00,VWS V12.08,2013-02-20 18:26:00,
2013-02-20 13:31:00,54.3,15.2,30.00,NW,315,1.1,6.9,21,0.00,,CLR,0.00,VWS V12.08,2013-02-20 18:31:00,
2013-02-20 13:36:00,54.0,14.9,29.99,NNW,338,6.3,6.9,21,0.00,,CLR,0.00,VWS V12.08,2013-02-20 18:36:00,
2013-02-20 13:41:00,53.8,14.8,30.00,SW,225,3.8,9.4,21,0.00,,CLR,0.00,VWS V12.08,2013-02-20 18:41:00,
2013-02-20 13:46:00,54.1,15.1,30.00,WSW,248,4.9,9.4,21,0.00,,CLR,0.00,VWS V12.08,2013-02-20 18:46:00,
2013-02-20 13:51:00,54.3,15.2,30.00,WSW,248,0.0,9.4,21,0.00,,CLR,0.00,VWS V12.08,2013-02-20 18:51:00,
2013-02-20 13:56:00,54.5,14.3,29.99,WSW,248,1.6,10.5,20,0.00,,CLR,0.00,VWS V12.08,2013-02-20 18:56:00,
2013-02-20 14:01:00,54.3,14.1,29.99,WNW,292,5.8,8.5,20,0.00,,CLR,0.00,VWS V12.08,2013-02-20 19:01:00,
2013-02-20 14:06:00,54.1,12.8,29.99,West,270,7.2,8.7,19,0.00,,CLR,0.00,VWS V12.08,2013-02-20 19:06:00,
2013-02-20 14:11:00,54.1,12.8,29.99,WNW,292,6.5,11.0,19,0.00,,CLR,0.00,VWS V12.08,2013-02-20 19:11:00,
2013-02-20 14:16:00,53.8,13.7,29.98,West,270,0.0,11.0,20,0.00,,CLR,0.00,VWS V12.08,2013-02-20 19:16:00,
2013-02-20 14:21:00,53.4,13.4,29.98,South,180,0.0,6.5,20,0.00,,CLR,0.00,VWS V12.08,2013-02-20 19:21:00,
2013-02-20 14:26:00,53.8,14.8,29.98,West,270,3.1,6.5,21,0.00,,CLR,0.00,VWS V12.08,2013-02-20 19:26:00,
2013-02-20 14:31:00,53.8,13.7,29.98,West,270,1.8,11.0,20,0.00,,CLR,0.00,VWS V12.08,2013-02-20 19:31:00,
2013-02-20 14:36:00,53.8,13.7,29.98,WNW,292,7.6,11.0,20,0.00,,CLR,0.00,VWS V12.08,2013-02-20 19:36:00,
2013-02-20 14:41:00,53.8,13.7,29.98,West,270,2.2,6.7,20,0.00,,CLR,0.00,VWS V12.08,2013-02-20 19:41:00,
2013-02-20 14:46:00,53.8,12.5,29.98,West,270,1.8,16.3,19,0.00,,CLR,0.00,VWS V12.08,2013-02-20 19:46:00,
2013-02-20 14:51:00,53.8,13.7,29.98,WNW,292,0.0,16.3,20,0.00,,CLR,0.00,VWS V12.08,2013-02-20 19:51:00,
2013-02-20 14:56:00,54.0,12.7,29.98,West,270,1.6,16.3,19,0.00,,CLR,0.00,VWS V12.08,2013-02-20 19:56:00,
2013-02-20 15:01:00,54.0,12.7,29.98,WNW,292,2.7,4.9,19,0.00,,CLR,0.00,VWS V12.08,2013-02-20 20:01:00,
2013-02-20 15:06:00,54.0,12.7,29.98,West,270,0.0,8.7,19,0.00,,CLR,0.00,VWS V12.08,2013-02-20 20:06:00,
2013-02-20 15:11:00,54.0,12.7,29.98,West,270,2.9,12.1,19,0.00,,CLR,0.00,VWS V12.08,2013-02-20 20:11:00,
2013-02-20 15:16:00,54.0,12.7,29.98,WNW,292,1.1,12.1,19,0.00,,CLR,0.00,VWS V12.08,2013-02-20 20:16:00,
2013-02-20 15:21:00,53.2,12.1,29.99,WSW,248,3.8,6.3,19,0.00,,CLR,0.00,VWS V12.08,2013-02-20 20:21:00,
2013-02-20 15:26:00,53.2,13.2,29.99,NNE,22,6.0,9.6,20,0.00,,CLR,0.00,VWS V12.08,2013-02-20 20:26:00,
2013-02-20 15:31:00,53.2,12.1,29.99,West,270,0.0,9.6,19,0.00,,CLR,0.00,VWS V12.08,2013-02-20 20:31:00,
2013-02-20 15:36:00,53.2,13.2,29.99,SSW,202,0.0,9.6,20,0.00,,CLR,0.00,VWS V12.08,2013-02-20 20:36:00,
2013-02-20 15:41:00,53.2,13.2,29.99,West,270,0.0,5.6,20,0.00,,CLR,0.00,VWS V12.08,2013-02-20 20:41:00,
2013-02-20 15:46:00,53.2,14.3,29.99,WNW,292,4.5,5.6,21,0.00,,CLR,0.00,VWS V12.08,2013-02-20 20:46:00,
2013-02-20 15:51:00,52.9,11.8,29.99,NW,315,1.6,11.4,19,0.00,,CLR,0.00,VWS V12.08,2013-02-20 20:51:00,
2013-02-20 15:56:00,52.7,12.8,30.00,WNW,292,3.6,11.4,20,0.00,,CLR,0.00,VWS V12.08,2013-02-20 20:56:00,
2013-02-20 16:02:00,52.5,12.6,30.00,WSW,248,0.0,2.5,20,0.00,,CLR,0.00,VWS V12.08,2013-02-20 21:02:00,
2013-02-20 16:06:00,52.7,12.8,29.99,West,270,0.0,5.6,20,0.00,,CLR,0.00,VWS V12.08,2013-02-20 21:06:00,
2013-02-20 16:12:00,52.9,14.0,29.99,NW,315,3.6,5.6,21,0.00,,CLR,0.00,VWS V12.08,2013-02-20 21:12:00,
2013-02-20 16:17:00,52.9,12.9,30.00,SW,225,0.0,12.8,20,0.00,,CLR,0.00,VWS V12.08,2013-02-20 21:17:00,
2013-02-20 16:22:00,52.7,12.8,30.00,SW,225,0.0,0.0,20,0.00,,CLR,0.00,VWS V12.08,2013-02-20 21:22:00,
2013-02-20 16:27:00,52.3,12.5,30.00,North,0,0.9,5.6,20,0.00,,CLR,0.00,VWS V12.08,2013-02-20 21:27:00,
2013-02-20 16:32:00,52.2,12.3,30.01,West,270,2.5,7.6,20,0.00,,CLR,0.00,VWS V12.08,2013-02-20 21:32:00,
2013-02-20 16:37:00,51.8,12.0,30.01,West,270,0.0,8.7,20,0.00,,CLR,0.00,VWS V12.08,2013-02-20 21:37:00,
2013-02-20 16:42:00,51.6,11.9,30.01,WNW,292,7.2,7.2,20,0.00,,CLR,0.00,VWS V12.08,2013-02-20 21:42:00,
2013-02-20 16:47:00,51.3,11.6,30.01,WNW,292,2.9,7.2,20,0.00,,CLR,0.00,VWS V12.08,2013-02-20 21:47:00,
2013-02-20 16:52:00,51.1,11.4,30.01,WNW,292,5.8,8.3,20,0.00,,CLR,0.00,VWS V12.08,2013-02-20 21:52:00,
2013-02-20 16:57:00,50.7,11.1,30.01,NW,315,5.6,8.3,20,0.00,,CLR,0.00,VWS V12.08,2013-02-20 21:57:00,
2013-02-20 17:02:00,50.5,11.0,30.01,West,270,2.2,4.0,20,0.00,,CLR,0.00,VWS V12.08,2013-02-20 22:02:00,
2013-02-20 17:07:00,50.5,11.0,30.01,WSW,248,0.0,6.7,20,0.00,,CLR,0.00,VWS V12.08,2013-02-20 22:07:00,
2013-02-20 17:12:00,50.2,11.8,30.01,WSW,248,3.4,6.7,21,0.00,,CLR,0.00,VWS V12.08,2013-02-20 22:12:00,
2013-02-20 17:17:00,49.8,11.5,30.02,West,270,0.0,6.7,21,0.00,,CLR,0.00,VWS V12.08,2013-02-20 22:17:00,
2013-02-20 17:22:00,49.8,12.5,30.02,West,270,0.0,0.0,22,0.00,,CLR,0.00,VWS V12.08,2013-02-20 22:22:00,
2013-02-20 17:27:00,49.6,12.4,30.03,West,270,0.0,4.0,22,0.00,,CLR,0.00,VWS V12.08,2013-02-20 22:27:00,
2013-02-20 17:32:00,49.1,10.9,30.03,WNW,292,0.0,4.9,21,0.00,,CLR,0.00,VWS V12.08,2013-02-20 22:32:00,
2013-02-20 17:37:00,49.1,10.9,30.03,WNW,292,0.0,4.9,21,0.00,,CLR,0.00,VWS V12.08,2013-02-20 22:37:00,
2013-02-20 17:42:00,48.6,11.5,30.04,SW,225,3.6,3.6,22,0.00,,CLR,0.00,VWS V12.08,2013-02-20 22:42:00,
2013-02-20 17:47:00,48.4,11.3,30.04,SW,225,0.0,6.0,22,0.00,,CLR,0.00,VWS V12.08,2013-02-20 22:47:00,
2013-02-20 17:52:00,48.0,11.0,30.05,West,270,3.6,6.0,22,0.00,,CLR,0.00,VWS V12.08,2013-02-20 22:52:00,
2013-02-20 17:57:00,47.8,10.9,30.05,West,270,0.0,6.0,22,0.00,,CLR,0.00,VWS V12.08,2013-02-20 22:57:00,
2013-02-20 18:02:00,47.7,11.7,30.05,WSW,248,0.0,1.8,23,0.00,,CLR,0.00,VWS V12.08,2013-02-20 23:02:00,
2013-02-20 18:07:00,47.3,10.4,30.05,West,270,0.0,3.1,22,0.00,,CLR,0.00,VWS V12.08,2013-02-20 23:07:00,
2013-02-20 18:12:00,47.1,11.2,30.05,West,270,0.0,3.1,23,0.00,,CLR,0.00,VWS V12.08,2013-02-20 23:12:00,
2013-02-20 18:17:00,46.8,10.9,30.05,West,270,0.0,3.1,23,0.00,,CLR,0.00,VWS V12.08,2013-02-20 23:17:00,
2013-02-20 18:22:00,46.6,10.8,30.05,WSW,248,0.0,0.0,23,0.00,,CLR,0.00,VWS V12.08,2013-02-20 23:22:00,
2013-02-20 18:27:00,46.2,11.4,30.05,WSW,248,0.0,0.0,24,0.00,,CLR,0.00,VWS V12.08,2013-02-20 23:27:00,
2013-02-20 18:32:00,46.2,10.5,30.05,WSW,248,0.0,0.0,23,0.00,,CLR,0.00,VWS V12.08,2013-02-20 23:32:00,
2013-02-20 18:37:00,46.0,10.3,30.06,NNW,338,2.9,2.9,23,0.00,,CLR,0.00,VWS V12.08,2013-02-20 23:37:00,
2013-02-20 18:42:00,45.7,10.0,30.06,NW,315,0.0,0.0,23,0.00,,CLR,0.00,VWS V12.08,2013-02-20 23:42:00,
2013-02-20 18:47:00,45.5,9.9,30.05,West,270,0.0,0.0,23,0.00,,CLR,0.00,VWS V12.08,2013-02-20 23:47:00,
2013-02-20 18:52:00,45.3,9.7,30.05,West,270,0.0,0.0,23,0.00,,CLR,0.00,VWS V12.08,2013-02-20 23:52:00,
2013-02-20 18:57:00,45.0,10.4,30.05,North,0,0.0,2.5,24,0.00,,CLR,0.00,VWS V12.08,2013-02-20 23:57:00,
2013-02-20 19:02:00,45.0,10.4,30.06,North,0,0.0,0.0,24,0.00,,CLR,0.00,VWS V12.08,2013-02-21 00:02:00,
2013-02-20 19:07:00,44.2,10.7,30.06,NNE,22,0.0,0.0,25,0.00,,CLR,0.00,VWS V12.08,2013-02-21 00:07:00,
2013-02-20 19:12:00,43.9,10.4,30.06,NNE,22,0.0,0.0,25,0.00,,CLR,0.00,VWS V12.08,2013-02-21 00:12:00,
2013-02-20 19:17:00,43.5,10.0,30.06,NNE,22,0.0,0.0,25,0.00,,CLR,0.00,VWS V12.08,2013-02-21 00:17:00,
2013-02-20 19:22:00,43.5,10.0,30.06,NE,45,0.0,0.0,25,0.00,,CLR,0.00,VWS V12.08,2013-02-21 00:22:00,
2013-02-20 19:27:00,43.2,9.7,30.06,NE,45,0.0,0.0,25,0.00,,CLR,0.00,VWS V12.08,2013-02-21 00:27:00,
2013-02-20 19:32:00,43.0,9.6,30.06,NW,315,0.0,2.7,25,0.00,,CLR,0.00,VWS V12.08,2013-02-21 00:32:00,
2013-02-20 19:37:00,43.0,8.7,30.06,NW,315,0.0,2.7,24,0.00,,CLR,0.00,VWS V12.08,2013-02-21 00:37:00,
2013-02-20 19:42:00,42.4,8.2,30.06,NW,315,0.0,0.0,24,0.00,,CLR,0.00,VWS V12.08,2013-02-21 00:42:00,
2013-02-20 19:47:00,42.3,8.1,30.07,NNW,338,0.0,0.0,24,0.00,,CLR,0.00,VWS V12.08,2013-02-21 00:47:00,
2013-02-20 19:52:00,42.1,9.7,30.06,NNW,338,0.0,0.0,26,0.00,,CLR,0.00,VWS V12.08,2013-02-21 00:52:00,
2013-02-20 19:57:00,41.7,9.4,30.06,NNW,338,0.0,0.0,26,0.00,,CLR,0.00,VWS V12.08,2013-02-21 00:57:00,
2013-02-20 20:02:00,41.9,9.5,30.07,NNW,338,0.0,0.0,26,0.00,,CLR,0.00,VWS V12.08,2013-02-21 01:02:00,
2013-02-20 20:07:00,41.7,9.4,30.07,NNW,338,0.0,0.0,26,0.00,,CLR,0.00,VWS V12.08,2013-02-21 01:07:00,
2013-02-20 20:12:00,41.5,10.1,30.07,NNW,338,0.0,0.0,27,0.00,,CLR,0.00,VWS V12.08,2013-02-21 01:12:00,
2013-02-20 20:17:00,41.5,9.2,30.07,North,0,0.0,0.0,26,0.00,,CLR,0.00,VWS V12.08,2013-02-21 01:17:00,
2013-02-20 20:22:00,40.8,9.4,30.07,NNW,338,0.0,0.0,27,0.00,,CLR,0.00,VWS V12.08,2013-02-21 01:22:00,
2013-02-20 20:27:00,40.6,9.3,30.06,NNW,338,0.0,0.0,27,0.00,,CLR,0.00,VWS V12.08,2013-02-21 01:27:00,
2013-02-20 20:32:00,40.6,9.3,30.07,NNW,338,0.0,0.0,27,0.00,,CLR,0.00,VWS V12.08,2013-02-21 01:32:00,
2013-02-20 20:37:00,39.9,11.0,30.06,North,0,0.0,0.0,30,0.00,,CLR,0.00,VWS V12.08,2013-02-21 01:37:00,
2013-02-20 20:42:00,39.6,10.7,30.06,North,0,0.0,0.0,30,0.00,,CLR,0.00,VWS V12.08,2013-02-21 01:42:00,
2013-02-20 20:47:00,39.4,10.5,30.06,North,0,0.0,0.0,30,0.00,,CLR,0.00,VWS V12.08,2013-02-21 01:47:00,
2013-02-20 20:52:00,38.8,11.5,30.06,North,0,0.0,0.0,32,0.00,,CLR,0.00,VWS V12.08,2013-02-21 01:52:00,
2013-02-20 20:57:00,38.5,10.5,30.06,North,0,0.0,0.0,31,0.00,,CLR,0.00,VWS V12.08,2013-02-21 01:57:00,
2013-02-20 21:02:00,38.1,10.2,30.07,North,0,0.0,0.0,31,0.00,,CLR,0.00,VWS V12.08,2013-02-21 02:02:00,
2013-02-20 21:07:00,37.8,9.9,30.06,North,0,0.0,0.0,31,0.00,,CLR,0.00,VWS V12.08,2013-02-21 02:07:00,
2013-02-20 21:12:00,37.6,9.7,30.06,North,0,0.0,0.0,31,0.00,,CLR,0.00,VWS V12.08,2013-02-21 02:12:00,
2013-02-20 21:17:00,37.2,10.1,30.06,North,0,0.0,0.0,32,0.00,,CLR,0.00,VWS V12.08,2013-02-21 02:17:00,
2013-02-20 21:22:00,37.0,10.6,30.07,North,0,0.0,0.0,33,0.00,,CLR,0.00,VWS V12.08,2013-02-21 02:22:00,
2013-02-20 21:27:00,36.7,11.0,30.07,North,0,0.0,0.0,34,0.00,,CLR,0.00,VWS V12.08,2013-02-21 02:27:00,
2013-02-20 21:32:00,36.3,10.6,30.07,NNE,22,0.0,0.0,34,0.00,,CLR,0.00,VWS V12.08,2013-02-21 02:32:00,
2013-02-20 21:37:00,36.1,11.1,30.07,NNE,22,0.0,0.0,35,0.00,,CLR,0.00,VWS V12.08,2013-02-21 02:37:00,
2013-02-20 21:42:00,36.0,11.0,30.07,NNE,22,0.0,0.0,35,0.00,,CLR,0.00,VWS V12.08,2013-02-21 02:42:00,
2013-02-20 21:47:00,35.8,10.8,30.08,NNE,22,0.0,0.0,35,0.00,,CLR,0.00,VWS V12.08,2013-02-21 02:47:00,
2013-02-20 21:52:00,35.4,11.1,30.08,NE,45,0.0,0.0,36,0.00,,CLR,0.00,VWS V12.08,2013-02-21 02:52:00,
2013-02-20 21:57:00,35.2,11.0,30.08,NE,45,0.0,0.0,36,0.00,,CLR,0.00,VWS V12.08,2013-02-21 02:57:00,
2013-02-20 22:02:00,35.2,11.6,30.08,NE,45,0.0,0.0,37,0.00,,CLR,0.00,VWS V12.08,2013-02-21 03:02:00,
2013-02-20 22:07:00,34.9,10.6,30.08,NE,45,0.0,0.0,36,0.00,,CLR,0.00,VWS V12.08,2013-02-21 03:07:00,
2013-02-20 22:12:00,34.9,11.3,30.09,NE,45,0.0,0.0,37,0.00,,CLR,0.00,VWS V12.08,2013-02-21 03:12:00,
2013-02-20 22:17:00,34.7,11.1,30.08,NE,45,0.0,0.0,37,0.00,,CLR,0.00,VWS V12.08,2013-02-21 03:17:00,
2013-02-20 22:22:00,34.5,10.9,30.08,NE,45,0.0,0.0,37,0.00,,CLR,0.00,VWS V12.08,2013-02-21 03:22:00,
2013-02-20 22:27:00,34.3,10.8,30.09,NE,45,0.0,0.0,37,0.00,,CLR,0.00,VWS V12.08,2013-02-21 03:27:00,
2013-02-20 22:32:00,34.3,11.4,30.09,ENE,68,0.0,0.0,38,0.00,,CLR,0.00,VWS V12.08,2013-02-21 03:32:00,
2013-02-20 22:37:00,34.2,11.2,30.09,ENE,68,0.0,0.0,38,0.00,,CLR,0.00,VWS V12.08,2013-02-21 03:37:00,
2013-02-20 22:42:00,34.0,11.1,30.09,ENE,68,0.0,0.0,38,0.00,,CLR,0.00,VWS V12.08,2013-02-21 03:42:00,
2013-02-20 22:47:00,33.6,11.3,30.08,ENE,68,0.0,0.0,39,0.00,,CLR,0.00,VWS V12.08,2013-02-21 03:47:00,
2013-02-20 22:52:00,33.4,11.7,30.08,ENE,68,0.0,0.0,40,0.00,,CLR,0.00,VWS V12.08,2013-02-21 03:52:00,
2013-02-20 22:57:00,33.1,10.8,30.08,ENE,68,0.0,0.0,39,0.00,,CLR,0.00,VWS V12.08,2013-02-21 03:57:00,
2013-02-20 23:03:00,33.1,10.8,30.07,ENE,68,0.0,0.0,39,0.00,,CLR,0.00,VWS V12.08,2013-02-21 04:03:00,
2013-02-20 23:08:00,32.7,11.1,30.07,ENE,68,0.0,0.0,40,0.00,,CLR,0.00,VWS V12.08,2013-02-21 04:08:00,
2013-02-20 23:13:00,32.5,10.9,30.06,ENE,68,0.0,0.0,40,0.00,,CLR,0.00,VWS V12.08,2013-02-21 04:13:00,
2013-02-20 23:18:00,32.4,11.3,30.06,ENE,68,0.0,0.0,41,0.00,,CLR,0.00,VWS V12.08,2013-02-21 04:18:00,
2013-02-20 23:23:00,32.2,11.1,30.06,ENE,68,0.0,0.0,41,0.00,,CLR,0.00,VWS V12.08,2013-02-21 04:23:00,
2013-02-20 23:28:00,32.2,11.1,30.06,ENE,68,0.0,0.0,41,0.00,,CLR,0.00,VWS V12.08,2013-02-21 04:28:00,
2013-02-20 23:33:00,32.2,11.1,30.07,ENE,68,0.0,0.0,41,0.00,,CLR,0.00,VWS V12.08,2013-02-21 04:33:00,
2013-02-20 23:38:00,32.2,11.1,30.07,ENE,68,0.0,0.0,41,0.00,,CLR,0.00,VWS V12.08,2013-02-21 04:38:00,
2013-02-20 23:43:00,32.2,11.1,30.07,ENE,68,0.0,0.0,41,0.00,,CLR,0.00,VWS V12.08,2013-02-21 04:43:00,
2013-02-20 23:48:00,32.2,11.7,30.07,ENE,68,0.0,0.0,42,0.00,,CLR,0.00,VWS V12.08,2013-02-21 04:48:00,
2013-02-20 23:53:00,31.8,10.8,30.07,ENE,68,0.0,0.0,41,0.00,,CLR,0.00,VWS V12.08,2013-02-21 04:53:00,
2013-02-20 23:58:00,31.8,11.4,30.07,ENE,68,0.0,0.0,42,0.00,,CLR,0.00,VWS V12.08,2013-02-21 04:58:00,